Flag for Germany Weather past 2 weeks in Hoyerswerda, Saxony, Germany

Now
44 °F

Overcast.


Feels Like: 42 °F
Forecast: 35 / 51 °F
Wind: 3 mph from West

Location: Cottbus

Current Time: Mar 6, 2015 at 5:24:52 PM

Latest Report: Mar 6, 2015 at 5:00 PM


Visibility: 8 mi

Pressure: 30.52 "Hg

Humidity: 76%

Dew point: 37 °F

Location of HoyerswerdaLocation

Historic Weather in Hoyerswerda — Graph

°F

Hoyerswerda temperature yesterday

Maximum temperature yesterday: 44 °F (at 2:00 PM)
Minimum temperature yesterday: 36 °F (at 12:00 AM)
Average temperature yesterday: 39 °F

Past Weeks' High & Low Weather Summary

 TemperatureHumidityPressure
High52 °F (Feb 21, 3:00 PM)100% (Mar 6, 2:00 AM)30.58 "Hg (Mar 6, 2:00 AM)
Low23 °F (Feb 26, 7:00 AM)42% (Feb 26, 3:00 PM)29.41 "Hg (Feb 21, 3:00 PM)
Average39 °F76%29.95 "Hg
* Reported Feb 19 4:00 PM — Mar 6 4:00 PM, Hoyerswerda, Weather by CustomWeather, © 2015

Note: Actual official high and low records may vary slightly from our data, if they occured in-between our weather recording intervals... More about our weather records

Advertising

Hoyerswerda weather history for previous 24 hours

 ConditionsComfort  
Time TempWeatherWind HumidityBarometerVisibility
4:00 PM
Fri, Mar 6
44 °FOvercast.5 mph77%30.53 "Hg8 mi
3:00 PM44 °FLow clouds.5 mph80%30.53 "Hg7 mi
2:00 PM44 °FOvercast.5 mph77%30.54 "Hg9 mi
1:00 PM44 °FDrizzle. Low clouds.3 mph81%30.55 "Hg7 mi
12:00 PM43 °FOvercast.2 mph85%30.56 "Hg6 mi
11:00 AM39 °FOvercast.3 mph93%30.57 "Hg4 mi
10:00 AM36 °FDrizzle. Low clouds.2 mph97%30.58 "Hg2 mi
9:00 AM35 °FDrizzle. Overcast.2 mph98%30.58 "Hg2 mi
8:00 AM33 °FFog.2 mph99%30.57 "Hg3 mi
7:00 AM27 °FFog.2 mph98%30.57 "Hg4 mi
6:00 AM27 °FClear.1 mph99%30.57 "Hg7 mi
5:00 AM27 °FClear.1 mph100%30.56 "Hg4 mi
4:00 AM28 °FClear.1 mph100%30.56 "Hg5 mi
3:00 AM29 °FClear.2 mph100%30.56 "Hg1 mi
2:00 AM31 °FFog.2 mph100%30.57 "Hg1 mi
1:00 AM34 °FOvercast.1 mph98%30.56 "Hg6 mi
12:00 AM35 °FOvercast.1 mph97%30.55 "Hg9 mi
10:00 PM
Thu, Mar 5
37 °FOvercast.1 mph91%30.55 "Hg19 mi
9:00 PM36 °FPassing clouds.2 mph93%30.54 "Hg22 mi
8:00 PM38 °FOvercast.2 mph90%30.53 "Hg22 mi
7:00 PM38 °FOvercast.2 mph91%30.52 "Hg28 mi
6:00 PM42 °FOvercast.1 mph66%30.50 "Hg43 mi
5:00 PM44 °FPartly sunny.3 mph58%30.49 "Hg37 mi
Weather by CustomWeather, © 2015

See weather overviewHow to use our weather pages